Rifle, CO

6:00 AM MDT on October 24, 2017 (GMT -0600)
Garfield County Regional

Weather History for KRIL - January, 2013

Change the Weather History Date:

Tuesday, January 1, 2013

  Actual Average Record
Temperature  
Mean Temperature 10 °F 23 °F  
Max Temperature 23 °F 34 °F 57 °F (1981)
Min Temperature -3 °F 11 °F -20 °F (1919)
Degree Days  
Heating Degree Days 55 42  
Month to date heating degree days 55 42  
Since 1 July heating degree days 2570 2806  
Cooling Degree Days 0 0  
Month to date cooling degree days 0 0  
Year to date cooling degree days 0 0  
Moisture  
Dew Point 2 °F    
Average Humidity 79    
Maximum Humidity 100    
Minimum Humidity 57    
Precipitation  
Precipitation T in 0.03 in 0.29 in (1982)
Month to date precipitation T 0.03  
Year to date precipitation T 0.03  
Sea Level Pressure  
Sea Level Pressure 30.43 in    
Wind  
Wind Speed 1 mph (SSE)    
Max Wind Speed 7 mph    
Max Gust Speed 8 mph    
Visibility 9 miles    
Events Snow    
T = Trace of Precipitation, MM = Missing Value Source: NWS Daily Summary

Daily Weather History Graph

Daily Weather History Graph

Search for Another Location

Airport or City:

Trip Planner

Search our weather history database for the weather conditions in past years. The results will help you decide how hot, cold, wet, or windy it might be!

Date:

Astronomy

Jan. 01, 2013 Rise Set
Actual Time 7:31 AM MST 4:58 PM MST
Civil Twilight 7:01 AM MST 5:28 PM MST
Nautical Twilight 6:27 AM MST 6:01 PM MST
Astronomical Twilight 5:54 AM MST 6:34 PM MST
Moon 9:30 PM MST (1/1) 9:46 AM MST (1/1)
Length of Visible Light 10h 26m
Length of Day
9h 26m
Waning Gibbous, 83% of the Moon is Illuminated
Jan 1
Waning Gibbous
Jan 4
Last Quarter
Jan 11
New
Jan 18
First Quarter
Jan 26
Full

Hourly Weather History & Observations

Time (MST) Temp. Windchill Dew Point Humidity Pressure Visibility Wind Dir Wind Speed Gust Speed Precip Events Conditions
12:53 AM 1.0 °F - -2.0 °F 87% 30.31 in 10.0 mi Calm Calm - N/A   Clear
1:53 AM -0.0 °F - -4.0 °F 83% 30.35 in 10.0 mi Calm Calm - N/A   Scattered Clouds
2:53 AM -2.0 °F -10.1 °F -7.1 °F 79% 30.38 in 10.0 mi East 3.5 mph - N/A   Mostly Cloudy
3:53 AM 1.0 °F - -4.0 °F 79% 30.37 in 10.0 mi Calm Calm - N/A   Overcast
4:53 AM 1.0 °F -6.7 °F -4.0 °F 79% 30.39 in 10.0 mi North 3.5 mph - N/A   Overcast
6:53 AM 1.9 °F -5.6 °F -2.9 °F 80% 30.45 in 10.0 mi SSW 3.5 mph - N/A   Overcast
7:53 AM 3.0 °F - -0.9 °F 84% 30.48 in 10.0 mi Calm Calm - N/A   Overcast
8:43 AM 6.8 °F - 3.2 °F 85% 30.24 in 2.5 mi Calm Calm - 0.00 in Snow Light Snow
8:53 AM 5.0 °F - 1.9 °F 87% 30.50 in 2.5 mi Calm Calm - 0.00 in Snow Light Snow
9:02 AM 6.8 °F - 3.2 °F 85% 30.25 in 3.0 mi Calm Calm - 0.00 in Snow Light Snow
9:45 AM 6.8 °F - 6.8 °F 100% 30.26 in 3.0 mi Calm Calm - 0.00 in Snow Light Snow
9:53 AM 7.0 °F - 6.1 °F 96% 30.52 in 5.0 mi Calm Calm - 0.00 in Snow Light Snow
10:06 AM 8.6 °F - 6.8 °F 92% 30.26 in 10.0 mi Calm Calm - 0.00 in   Scattered Clouds
10:53 AM 12.0 °F - 5.0 °F 73% 30.50 in 10.0 mi Calm Calm - 0.00 in   Clear
11:53 AM 14.0 °F - 7.0 °F 74% 30.48 in 10.0 mi Calm Calm - N/A   Clear
12:53 PM 17.1 °F - 9.0 °F 71% 30.46 in 10.0 mi Calm Calm - N/A   Clear
1:53 PM 19.0 °F - 9.0 °F 65% 30.43 in 10.0 mi Calm Calm - N/A   Clear
2:53 PM 21.0 °F - 9.0 °F 60% 30.44 in 10.0 mi Calm Calm - N/A   Clear
3:53 PM 19.9 °F - 9.0 °F 62% 30.44 in 10.0 mi Calm Calm - N/A   Clear
4:53 PM 14.0 °F 8.2 °F 6.1 °F 71% 30.46 in 10.0 mi South 3.5 mph - N/A   Clear
5:53 PM 7.0 °F 0.1 °F -0.0 °F 73% 30.50 in 10.0 mi SSE 3.5 mph - N/A   Clear
6:53 PM 7.0 °F 0.1 °F -0.9 °F 70% 30.51 in 10.0 mi ESE 3.5 mph - N/A   Clear
7:53 PM 3.0 °F - -2.0 °F 80% 30.55 in 10.0 mi Calm Calm - N/A   Clear
8:53 PM 6.1 °F -0.9 °F -0.0 °F 76% 30.55 in 10.0 mi SSW 3.5 mph - N/A   Overcast
9:53 PM 8.1 °F - 1.9 °F 76% 30.55 in 10.0 mi Calm Calm - N/A   Overcast
10:53 PM 8.1 °F - 3.0 °F 80% 30.53 in 10.0 mi Calm Calm - N/A   Overcast
11:53 PM 10.0 °F - 3.9 °F 76% 30.51 in 10.0 mi Calm Calm - N/A   Overcast